[[{"header":{"parameterUnit":"m.s-1","parameterCategory":1,"la1":30.2991,"la2":30.254,"lo1":-89.0895,"lo2":-89.0444,"dy":0.0017,"dx":0.0017,"nx":28,"ny":28,"refTime":"2025-12-13T03:00:00:Z","depth":0,"parameterNumber":2,"parameterNumberName":"U-component_of_WINDS"},"data":[0,0,0,0,0,0,0,0,0,0,0,0,0,0,0,0,0,0,0,0,0,0,0,0,0,0,0,0,0,0,0,0,0,0,0,0,0,0,0,0,0,0,0,0,0,0,0,0,0,0,0,0,0,0,0,0,0,0,-1.6142,-1.6143,0,-1.6201,-1.6202,-1.6203,-1.6189,-1.6188,-1.6187,-1.6186,-1.6248,-1.6251,-1.6254,0,0,0,0,0,0,0,0,0,0,0,0,0,-1.6019,-1.6022,-1.6142,-1.6143,-1.6144,-1.6201,-1.6202,-1.6203,-1.6189,-1.6188,-1.6186,-1.6185,-1.6248,-1.6251,-1.6254,0,0,0,0,0,0,0,0,0,0,0,0,0,-1.6075,-1.6023,-1.6142,-1.6144,-1.6144,-1.6201,-1.6202,-1.6203,-1.6189,-1.6188,-1.6186,-1.6184,-1.6246,-1.625,-1.6255,-1.6314,0,0,-1.6267,-1.6269,0,0,0,0,0,0,0,0,-1.6072,-1.608,-1.6143,-1.6144,-1.6145,-1.6186,-1.6182,-1.624,-1.619,-1.6172,-1.6185,-1.6184,-1.6229,-1.6235,-1.625,-1.6317,-1.632,-1.6267,-1.627,-1.6272,-1.6273,0,0,0,0,0,0,0,-1.6068,-1.6077,-1.6166,-1.6144,-1.6145,-1.6142,-1.6148,-1.6193,-1.621,-1.6174,-1.6173,-1.618,-1.6229,-1.6246,-1.6251,-1.6321,-1.6267,-1.6271,-1.6273,-1.6275,-1.6439,-1.6441,0,0,0,0,0,0,-1.6063,-1.6074,-1.6164,-1.6167,-1.6103,-1.6146,-1.6152,-1.6174,-1.6209,-1.6213,-1.6181,-1.6179,-1.6239,-1.6246,-1.6253,-1.6324,-1.6272,-1.6275,-1.6278,-1.6437,-1.6439,-1.6441,0,0,0,0,0,0,-1.6061,-1.6071,-1.6161,-1.6121,-1.6132,-1.615,-1.6174,-1.6177,-1.6193,-1.6215,-1.6218,-1.6195,-1.6238,-1.6247,-1.6299,-1.6326,-1.6277,-1.6281,-1.6435,-1.6438,-1.644,-1.6467,0,0,0,0,0,0,-1.6057,-1.6071,-1.6093,-1.6121,-1.6134,-1.6205,-1.6176,-1.6179,-1.6199,-1.6197,-1.6228,-1.6232,-1.6238,-1.6292,-1.6303,-1.6331,-1.6284,-1.6432,-1.6436,-1.6439,-1.6463,-1.647,-1.6476,0,0,0,0,0,-1.6053,-1.6099,-1.6094,-1.6105,-1.6162,-1.6207,-1.6214,-1.622,-1.6202,-1.6224,-1.6239,-1.6231,-1.6322,-1.6298,-1.6309,-1.6339,-1.6431,-1.6435,-1.6439,-1.6461,-1.6469,-1.6476,0,0,0,0,0,0,-1.6074,-1.6102,-1.6098,-1.6154,-1.6178,-1.6205,-1.6233,-1.6228,-1.6259,-1.6255,-1.6261,-1.6269,-1.632,-1.6335,-1.6308,-1.6398,-1.6373,-1.638,-1.6386,-1.6394,-1.64,-1.6395,-1.6288,0,0,0,0,0,-1.6086,-1.6119,-1.6142,-1.619,-1.6202,-1.6216,-1.6235,-1.6237,-1.6263,-1.6273,-1.6291,-1.6317,-1.6351,-1.6374,-1.6406,-1.6466,-1.6472,-1.6492,-1.6498,-1.6503,-1.6508,-1.654,-1.6548,-1.6455,-1.6455,-1.6455,0,0,-1.6109,-1.6129,-1.615,-1.6194,-1.6213,-1.6248,-1.6224,-1.6262,-1.6288,-1.6279,-1.6328,-1.6342,-1.6371,-1.6427,-1.6452,-1.644,-1.6536,-1.6508,-1.6512,-1.6515,-1.6545,-1.6554,-1.6562,-1.6458,-1.6457,-1.6457,0,0,-1.617,-1.6188,-1.6229,-1.6248,-1.6277,-1.6285,-1.6295,-1.6323,-1.6331,-1.638,-1.6374,-1.6405,-1.6464,-1.6485,-1.6503,-1.6571,-1.6564,-1.6582,-1.6613,-1.6644,-1.6651,-1.6658,-1.6681,-1.6689,-1.6587,-1.6587,-1.6587,0,-1.6196,-1.6247,-1.6251,-1.6289,-1.6309,-1.6301,-1.6343,-1.6362,-1.64,-1.6414,-1.64,-1.6473,-1.6493,-1.6552,-1.6568,-1.6584,-1.6595,-1.6578,-1.665,-1.6656,-1.6663,-1.6684,-1.6693,-1.6589,-1.6589,-1.6589,-1.6589,0,-1.6277,-1.6312,-1.6342,-1.6378,-1.6401,-1.6441,-1.6451,-1.6474,-1.6474,-1.6485,-1.6534,-1.6557,-1.6594,-1.6608,-1.6609,-1.6668,-1.666,-1.6648,-1.6624,-1.6673,-1.6694,-1.6702,-1.6592,-1.6591,-1.659,-1.659,0,0,-1.6352,-1.6389,-1.6399,-1.6415,-1.6446,-1.6474,-1.6513,-1.6548,-1.6567,-1.6594,-1.6627,-1.6677,-1.6666,-1.6687,-1.669,-1.6717,-1.6768,-1.6702,-1.6703,-1.6712,-1.6832,-1.684,-1.6849,-1.6764,-1.6766,-1.6767,-1.6829,0,-1.6414,-1.6482,-1.6487,-1.6548,-1.6581,-1.6575,-1.6609,-1.6632,-1.6643,-1.6672,-1.6685,-1.6719,-1.6703,-1.6715,-1.6742,-1.6756,-1.6792,-1.6752,-1.6794,-1.6796,-1.6786,-1.686,-1.6869,-1.6926,-1.6838,-1.6839,-1.684,0,-1.6495,-1.6523,-1.6587,-1.6612,-1.6626,-1.6657,-1.6689,-1.6718,-1.6743,-1.6749,-1.6772,-1.6772,-1.6812,-1.6787,-1.6843,-1.6816,-1.6834,-1.6843,-1.6846,-1.6849,-1.682,-1.6864,-1.6945,-1.6953,-1.6853,-1.6852,-1.6851,0,-1.6542,-1.6595,-1.6641,-1.6654,-1.6685,-1.6707,-1.6721,-1.6745,-1.6765,-1.6794,-1.6807,-1.684,-1.6858,-1.6884,-1.6893,-1.6874,-1.6948,-1.6924,-1.6954,-1.6953,-1.6969,-1.6967,-1.7052,-1.6983,-1.6982,-1.6982,-1.6982,0,-1.661,-1.6649,-1.6662,-1.6689,-1.6733,-1.6739,-1.6783,-1.6796,-1.6817,-1.6847,-1.6845,-1.6873,-1.6883,-1.6914,-1.6921,-1.6965,-1.6974,-1.698,-1.6981,-1.6979,-1.6978,-1.699,-1.6986,-1.6985,-1.6984,-1.6984,-1.6983,0,-1.6668,-1.6678,-1.6727,-1.6752,-1.6759,-1.679,-1.6812,-1.6839,-1.6849,-1.6888,-1.6897,-1.6913,-1.6949,-1.696,-1.7004,-1.7009,-1.706,-1.7059,-1.7051,-1.7051,-1.7079,-1.7076,-1.7173,-1.7186,-1.711,-1.7111,-1.7111,0,-1.671,-1.674,-1.6768,-1.6787,-1.6802,-1.6834,-1.6854,-1.6861,-1.6883,-1.6914,-1.6937,-1.6972,-1.7,-1.7058,-1.7074,-1.7107,-1.7105,-1.7137,-1.711,-1.7107,-1.7104,-1.7101,-1.7104,-1.7142,-1.7143,-1.7143,-1.7144,0,-1.6783,-1.6786,-1.6815,-1.6846,-1.687,-1.6895,-1.6919,-1.6935,-1.6946,-1.697,-1.7006,-1.7028,-1.7071,-1.7106,-1.714,-1.7155,-1.7151,-1.7152,-1.7161,-1.7158,-1.7152,-1.7154,-1.7063,-1.715,-1.7149,-1.7149,-1.7148,-1.7148,-1.6834,-1.6859,-1.6883,-1.6915,-1.6933,-1.6956,-1.6981,-1.6995,-1.7024,-1.7059,-1.7062,-1.7101,-1.7126,-1.717,-1.7187,-1.7217,-1.7208,-1.7221,-1.7224,-1.7226,-1.7228,-1.7148,-1.7224,-1.7224,-1.7224,-1.7223,-1.7223,0,-1.6905,-1.6919,-1.6949,-1.6982,-1.7007,-1.7001,-1.7027,-1.7048,-1.7082,-1.7105,-1.7133,-1.7174,-1.7207,-1.7226,-1.7259,-1.728,-1.7279,-1.7288,-1.7286,-1.729,-1.7235,-1.7223,-1.7289,-1.7289,-1.7289,-1.7289,-1.7289,-1.7289,-1.6945,-1.6988,-1.6994,-1.7046,-1.706,-1.7097,-1.7112,-1.7133,-1.7151,-1.7196,-1.7224,-1.7235,-1.7257,-1.7292,-1.7322,-1.7327,-1.7339,-1.7349,-1.7352,-1.73,-1.7294,-1.7287,-1.7276,-1.7352,-1.7352,-1.7404,-1.7405,-1.7405]},{"header":{"parameterUnit":"m.s-1","parameterCategory":1,"la1":30.2991,"la2":30.254,"lo1":-89.0895,"lo2":-89.0444,"dy":0.0017,"dx":0.0017,"nx":28,"ny":28,"refTime":"2025-12-13T03:00:00:Z","depth":0,"parameterNumber":3,"parameterNumberName":"V-component_of_WINDS"},"data":[0,0,0,0,0,0,0,0,0,0,0,0,0,0,0,0,0,0,0,0,0,0,0,0,0,0,0,0,0,0,0,0,0,0,0,0,0,0,0,0,0,0,0,0,0,0,0,0,0,0,0,0,0,0,0,0,0,0,0.5512,0.5513,0,0.5573,0.5573,0.5574,0.5573,0.5573,0.5572,0.5571,0.5634,0.5637,0.5639,0,0,0,0,0,0,0,0,0,0,0,0,0,0.5399,0.5401,0.5512,0.5513,0.5514,0.5573,0.5573,0.5574,0.5574,0.5573,0.5572,0.5571,0.5633,0.5636,0.5639,0,0,0,0,0,0,0,0,0,0,0,0,0,0.5453,0.5402,0.5512,0.5521,0.5522,0.5572,0.5573,0.5574,0.5574,0.5573,0.5571,0.557,0.5633,0.5636,0.564,0.5686,0,0,0.5651,0.5652,0,0,0,0,0,0,0,0,0.545,0.5457,0.5519,0.552,0.5522,0.5564,0.5557,0.5612,0.5574,0.5554,0.5571,0.557,0.5612,0.5617,0.5631,0.5689,0.5692,0.5651,0.5653,0.5655,0.5656,0,0,0,0,0,0,0,0.5446,0.5454,0.5536,0.5519,0.5521,0.5522,0.5528,0.5567,0.5589,0.5556,0.5556,0.5563,0.5613,0.5628,0.5633,0.5693,0.5651,0.5654,0.5656,0.5658,0.5794,0.5795,0,0,0,0,0,0,0.544,0.5451,0.5534,0.5538,0.5482,0.5525,0.5532,0.5552,0.5589,0.5593,0.5564,0.5563,0.5622,0.5629,0.5635,0.5693,0.5655,0.5658,0.566,0.5792,0.5794,0.5796,0,0,0,0,0,0,0.5438,0.5447,0.5532,0.5495,0.5505,0.5528,0.555,0.5554,0.5569,0.5595,0.5599,0.5575,0.5621,0.563,0.5674,0.5695,0.566,0.5663,0.5791,0.5793,0.5795,0.5809,0,0,0,0,0,0,0.5434,0.5447,0.5464,0.5495,0.5507,0.5569,0.5552,0.5556,0.5575,0.5574,0.5607,0.5611,0.5621,0.5668,0.5677,0.57,0.5666,0.5789,0.5792,0.5794,0.5807,0.5812,0.5816,0,0,0,0,0,0.543,0.5466,0.5465,0.5475,0.5529,0.557,0.5577,0.5588,0.5577,0.5595,0.5612,0.561,0.5691,0.5673,0.5683,0.5707,0.5788,0.5791,0.5794,0.5805,0.5811,0.5816,0,0,0,0,0,0,0.5437,0.547,0.5469,0.5515,0.554,0.557,0.5593,0.5594,0.5622,0.562,0.5633,0.564,0.5685,0.57,0.5679,0.5755,0.5738,0.5744,0.5743,0.5749,0.5753,0.5749,0.5669,0,0,0,0,0,0.5444,0.5473,0.5501,0.5539,0.5551,0.557,0.5588,0.5595,0.5621,0.5631,0.5651,0.5677,0.5709,0.573,0.576,0.5809,0.5817,0.5831,0.5835,0.5838,0.5843,0.5872,0.5879,0.5806,0.5806,0.5806,0,0,0.5458,0.548,0.5498,0.5541,0.5561,0.5592,0.5579,0.5612,0.5636,0.5636,0.568,0.5695,0.5725,0.5772,0.5794,0.5786,0.5865,0.5842,0.5845,0.5848,0.5876,0.5883,0.5889,0.5808,0.5808,0.5808,0,0,0.5501,0.5519,0.5554,0.5574,0.5604,0.5617,0.5625,0.5655,0.5666,0.5709,0.571,0.5739,0.5793,0.5814,0.5833,0.5884,0.5884,0.5894,0.5917,0.5945,0.5951,0.5956,0.5976,0.5983,0.5898,0.5899,0.5899,0,0.5515,0.5562,0.5572,0.5606,0.5626,0.5627,0.5663,0.5682,0.5721,0.5735,0.5725,0.5794,0.5814,0.5867,0.588,0.5894,0.5905,0.5891,0.5949,0.5954,0.5959,0.5979,0.5986,0.59,0.5899,0.5899,0.5899,0,0.5579,0.5611,0.5636,0.5673,0.5695,0.573,0.5746,0.5768,0.5772,0.5786,0.5831,0.5855,0.5891,0.5904,0.5908,0.5958,0.5953,0.5946,0.593,0.5967,0.5986,0.5993,0.5901,0.5901,0.59,0.59,0,0,0.5628,0.567,0.5679,0.5697,0.573,0.5756,0.5792,0.5827,0.5846,0.5872,0.5903,0.5949,0.5944,0.5964,0.5971,0.5995,0.6037,0.5986,0.5987,0.5996,0.6095,0.6101,0.6109,0.6037,0.6038,0.6039,0.6093,0,0.5675,0.5737,0.5748,0.5803,0.5834,0.5836,0.5867,0.5892,0.5906,0.5935,0.595,0.5983,0.5972,0.5985,0.6009,0.6027,0.6057,0.6023,0.6067,0.6068,0.6061,0.6119,0.6125,0.6175,0.61,0.6102,0.6102,0,0.5739,0.5767,0.5825,0.5856,0.5869,0.5897,0.5931,0.5958,0.5986,0.5995,0.6018,0.6023,0.6061,0.6042,0.6095,0.6072,0.609,0.6102,0.6104,0.611,0.6089,0.6128,0.6191,0.6199,0.6114,0.6113,0.6112,0,0.577,0.5823,0.5865,0.588,0.5916,0.5936,0.5952,0.5979,0.6,0.603,0.6044,0.6077,0.6096,0.6122,0.6136,0.6121,0.6189,0.6171,0.6199,0.6198,0.6214,0.6213,0.6283,0.6223,0.6223,0.6223,0.6223,0,0.5823,0.5859,0.588,0.5906,0.5947,0.5959,0.5999,0.6015,0.6039,0.6069,0.6073,0.6101,0.6117,0.6148,0.6159,0.6202,0.621,0.6219,0.6222,0.622,0.6219,0.6233,0.6231,0.6225,0.6225,0.6224,0.6224,0,0.5866,0.5881,0.5928,0.5958,0.5967,0.5996,0.6023,0.6049,0.6062,0.61,0.611,0.6132,0.6169,0.6185,0.623,0.6237,0.6287,0.6287,0.6278,0.6279,0.6306,0.6304,0.6389,0.6401,0.6332,0.6333,0.6333,0,0.5899,0.5927,0.5961,0.5981,0.5998,0.603,0.6051,0.6064,0.6087,0.6122,0.6144,0.618,0.621,0.6269,0.629,0.6324,0.6326,0.6353,0.6331,0.6329,0.6328,0.6327,0.6331,0.6357,0.6358,0.6359,0.6359,0,0.5958,0.5964,0.5994,0.6028,0.6053,0.608,0.6107,0.6123,0.6141,0.6166,0.6203,0.6226,0.6273,0.631,0.6346,0.6363,0.6365,0.6366,0.6374,0.6373,0.6367,0.6373,0.6291,0.6364,0.6363,0.6363,0.6363,0.6363,0.5998,0.6023,0.6051,0.6086,0.6107,0.6132,0.6158,0.6175,0.6206,0.6245,0.6251,0.6291,0.632,0.6369,0.6388,0.642,0.6414,0.6425,0.6429,0.6432,0.6435,0.6361,0.6427,0.6426,0.6426,0.6426,0.6426,0,0.6058,0.6076,0.6107,0.6144,0.6172,0.617,0.6199,0.6222,0.6258,0.6284,0.6314,0.6358,0.6393,0.6417,0.6454,0.6475,0.6477,0.6485,0.6484,0.6488,0.6437,0.6427,0.6483,0.6483,0.6483,0.6483,0.6483,0.6483,0.6092,0.6136,0.6146,0.62,0.6218,0.6257,0.6275,0.6298,0.632,0.6368,0.6398,0.6413,0.6439,0.6477,0.6511,0.6517,0.6531,0.6539,0.6545,0.6497,0.6492,0.6486,0.6477,0.6542,0.6542,0.6594,0.6594,0.6594]}]]